Theta_e
354 353 352 351 351 352 352 352 351 350 349 349 348 350 350 350 351 351 351 352 352 352 352 351 352 352 352 353 352 351 350 351 352 352 352 353 354 353 352 351 352 350 351 352 351 351 353 351 348 348 350 351 350 351 350 351 350 351 352 353 353 352 351 349 349 350 348 345 341 339 341 342 345 346 345 346 346 347 348 347 348 350 352 352 351
356 354 353 352 351 351 352 352 351 350 349 348 348 348 349 349 349 350 351 351 352 352 353 351 352 351 351 352 352 351 351 351 353 353 353 354 354 354 352 352 352 351 351 350 350 351 354 352 348 347 349 350 351 351 351 351 351 351 352 353 353 352 352 351 349 350 348 345 340 340 344 343 344 346 345 346 347 346 347 346 346 348 350 350 350
358 355 353 352 351 352 352 352 351 351 350 349 349 348 348 348 347 349 350 350 351 351 352 352 352 351 350 351 351 351 351 352 354 356 355 355 354 353 353 353 352 351 350 350 351 353 354 352 349 347 348 351 353 353 353 353 352 352 352 353 353 352 353 351 350 351 349 347 344 345 353 351 347 348 346 345 347 346 347 347 347 348 348 349 348
357 353 352 351 351 352 352 352 352 351 351 350 350 350 349 347 346 347 348 349 351 351 351 352 351 351 349 350 352 353 353 355 356 356 355 355 353 354 353 352 352 350 350 351 352 353 354 353 349 348 348 351 353 353 353 353 352 353 353 353 353 352 352 350 350 350 348 349 347 348 352 349 352 352 347 346 347 347 349 347 347 347 346 347 347
356 354 353 351 351 352 352 352 352 351 351 350 350 351 350 348 347 347 347 348 350 351 350 351 351 352 351 352 354 355 355 355 356 355 355 355 354 353 353 352 351 350 351 352 353 354 354 353 350 348 348 350 353 353 353 352 352 353 353 354 354 353 352 350 350 350 349 350 347 347 346 347 361 356 345 347 346 345 349 346 346 346 346 346 346
354 354 352 352 352 352 351 351 351 351 351 351 350 351 351 349 348 348 348 348 349 349 350 351 352 352 352 354 355 356 355 354 354 355 355 354 354 353 352 351 350 351 352 352 353 354 353 354 352 350 350 351 353 353 353 352 353 353 353 354 354 354 353 351 352 350 351 349 346 347 343 343 356 351 343 350 347 343 345 345 345 345 345 346 345
355 354 354 353 352 352 352 351 352 351 351 351 351 350 350 350 349 350 350 350 350 350 351 351 353 353 353 354 355 356 355 354 355 355 354 354 353 352 352 351 352 352 353 353 354 354 353 354 353 352 352 353 353 354 354 353 353 353 353 354 354 353 354 353 353 351 351 350 348 349 345 343 346 343 344 348 346 345 343 341 343 345 345 345 345
356 356 357 357 352 353 352 352 351 351 352 351 350 351 350 350 350 350 350 351 352 352 352 353 353 354 354 355 355 356 356 355 355 355 355 354 353 352 352 352 352 352 353 353 353 354 354 353 353 353 354 353 353 354 354 355 355 355 354 354 355 354 353 353 352 351 352 351 349 348 347 346 345 344 344 341 343 350 349 344 343 342 344 344 344
356 356 360 358 353 352 352 351 352 351 351 352 351 351 351 351 351 350 351 352 352 353 353 354 354 354 355 356 356 356 356 355 355 354 354 353 353 352 351 352 353 353 353 353 354 354 354 354 354 355 354 353 353 353 353 355 356 355 355 354 355 354 352 351 351 352 352 351 350 349 348 348 347 346 345 340 342 348 353 356 347 340 342 343 342
357 356 357 355 353 353 352 351 352 351 351 352 351 351 350 352 351 351 351 353 353 354 354 355 354 355 355 355 356 356 356 355 355 355 353 353 352 352 352 352 353 353 354 354 354 355 354 354 355 354 355 354 355 354 353 354 355 355 355 355 355 354 353 352 354 353 353 351 351 351 350 349 347 346 345 343 343 342 348 351 343 339 341 341 343
358 356 356 354 353 353 353 353 351 351 351 351 351 352 351 352 352 352 352 352 354 354 354 354 354 354 354 356 356 356 356 355 354 354 354 354 353 353 352 352 352 353 354 354 355 355 353 354 354 354 355 354 355 356 353 353 354 355 355 355 354 353 353 354 354 354 353 352 351 351 352 350 348 346 346 345 343 342 345 345 341 341 342 342 346
358 358 357 356 354 354 352 352 352 352 351 351 352 352 352 352 352 352 353 353 354 355 355 354 355 355 355 356 356 355 355 355 354 354 354 354 354 353 353 352 353 354 354 354 354 355 354 353 353 353 354 355 356 356 353 351 353 354 354 355 355 353 353 354 354 353 352 352 351 351 352 351 348 348 348 346 344 344 344 344 343 346 347 347 347
355 357 357 358 357 353 352 352 352 351 352 352 352 352 352 353 353 353 353 353 354 355 355 356 355 356 355 355 356 354 354 354 354 354 354 355 354 354 353 352 353 354 354 355 354 355 355 354 354 353 354 355 356 356 354 351 352 353 354 354 354 354 353 353 354 354 352 352 352 351 351 351 350 349 350 349 348 347 347 347 347 348 349 349 348
351 353 356 358 358 353 350 352 351 351 352 352 353 352 352 353 354 354 354 354 355 355 355 356 356 356 355 356 355 353 354 354 354 354 354 355 354 354 353 352 353 353 354 354 354 355 355 355 355 354 354 356 356 356 354 353 352 352 353 353 353 354 353 354 354 353 353 352 353 353 353 352 351 351 351 350 350 349 348 349 349 350 350 349 348
350 351 354 355 355 352 352 351 350 351 351 352 353 352 351 353 354 355 355 355 356 355 355 355 355 356 355 356 354 354 354 354 355 355 354 355 355 354 352 352 352 353 353 354 354 355 356 356 356 355 356 356 356 355 354 354 354 353 354 353 354 354 354 353 353 354 354 353 353 353 353 352 350 351 352 351 351 351 350 350 349 351 356 355 352
350 350 352 351 352 353 353 352 351 351 352 353 353 353 353 352 353 355 356 356 357 356 356 356 356 356 356 356 355 355 355 355 355 355 355 356 355 355 354 352 353 353 353 354 355 355 356 356 356 356 357 357 357 356 354 354 355 354 354 353 353 354 353 352 352 352 353 353 353 353 353 352 351 352 352 353 352 352 351 351 350 350 354 358 360
349 349 351 351 350 351 353 353 352 351 352 353 353 352 353 352 353 355 356 357 357 357 357 357 357 357 357 357 357 357 356 356 356 355 356 356 356 356 355 352 352 352 353 353 353 354 355 355 356 356 356 356 357 356 353 353 354 354 353 352 352 352 352 351 351 352 353 352 352 351 351 351 350 350 350 352 353 352 351 352 352 351 351 355 363
349 348 349 350 350 349 352 354 352 352 353 353 353 353 353 352 352 356 357 358 358 358 359 359 359 358 358 358 358 358 358 357 357 356 356 357 357 358 355 353 352 353 353 352 353 353 353 354 355 355 355 356 357 356 354 353 354 354 353 351 351 351 351 351 350 351 353 353 351 350 349 350 351 352 352 353 353 353 353 353 354 354 352 353 356
348 347 347 349 351 350 351 352 353 352 351 352 352 352 353 353 353 354 355 358 358 358 359 359 359 359 358 359 358 358 358 358 359 358 358 358 358 357 357 355 355 354 353 353 353 353 352 353 354 355 355 356 356 356 355 354 354 353 353 352 352 353 353 352 352 353 354 354 353 352 351 353 353 355 355 356 355 354 355 354 354 354 354 353 352
348 347 347 348 349 350 351 351 353 352 350 352 352 352 353 353 355 355 354 356 358 359 358 359 359 359 359 359 359 359 359 359 360 360 359 359 358 358 357 357 357 356 355 354 353 353 352 352 354 354 355 356 355 355 355 356 355 354 353 353 354 355 356 355 355 355 355 355 355 354 354 354 355 355 355 355 355 355 355 355 353 354 353 353 351
348 347 347 348 348 349 351 351 353 353 351 350 351 352 352 353 356 358 357 358 359 358 358 358 358 359 360 360 360 360 360 360 361 360 360 360 359 358 358 358 358 358 356 355 353 352 353 352 353 354 354 354 355 354 356 355 355 354 354 355 356 357 357 356 356 355 355 356 357 356 356 356 355 354 354 354 355 355 356 354 354 352 351 352 351
348 348 347 348 348 349 350 351 353 353 351 350 351 352 353 353 356 358 360 360 359 358 358 357 357 359 361 361 360 361 361 361 361 360 360 360 359 359 358 359 358 358 356 354 352 352 351 351 352 353 353 353 353 354 355 356 355 355 356 356 357 357 357 356 356 356 356 356 357 357 357 356 356 355 353 354 354 354 354 354 354 352 351 352 351
347 348 349 349 350 349 349 351 353 354 354 353 353 354 353 353 354 358 361 360 359 359 358 357 358 359 360 361 361 361 361 361 361 360 360 360 360 360 359 357 358 355 352 351 350 350 350 351 352 352 353 353 353 353 354 355 355 355 356 357 357 357 357 357 356 356 355 356 356 357 356 355 355 354 353 353 353 353 353 353 353 352 351 351 351
347 348 350 349 350 351 350 351 353 355 356 356 355 355 354 354 354 356 360 360 360 359 359 358 359 359 360 361 361 361 361 361 361 360 359 360 359 359 357 355 354 352 350 350 349 349 350 351 352 353 353 353 353 352 354 355 356 356 357 358 358 358 358 356 355 356 356 355 355 355 354 354 354 353 353 353 353 352 352 351 351 351 352 352 352
348 349 351 350 351 352 351 353 355 354 355 356 355 355 355 355 354 356 358 360 361 360 359 359 358 359 360 360 360 360 360 360 360 359 359 359 358 356 353 352 351 350 351 350 349 350 352 351 352 353 354 354 353 353 355 357 357 358 359 359 359 359 357 355 355 356 356 355 354 354 353 353 353 353 353 353 352 352 351 351 351 352 352 352 352
348 350 351 351 352 351 351 353 355 354 355 356 354 354 354 353 354 355 357 359 359 359 359 359 359 358 358 359 359 359 359 359 359 358 357 356 355 351 350 352 352 351 351 350 348 351 353 351 351 354 355 355 357 357 358 359 359 360 359 360 359 357 356 356 356 356 355 354 353 353 353 353 353 353 352 351 352 351 351 351 351 352 352 351 351
349 349 350 351 352 352 351 351 353 354 354 354 354 354 353 353 352 354 355 354 355 356 358 359 359 359 358 358 358 358 358 357 357 357 356 356 354 351 351 351 351 350 351 350 350 352 354 353 352 354 356 356 358 359 359 359 359 360 359 359 359 357 356 356 355 354 354 353 352 353 353 353 352 351 351 351 352 351 351 351 351 351 351 351 351
349 349 348 350 352 353 351 350 351 352 352 354 355 354 354 354 354 354 354 353 354 355 356 358 359 359 359 358 358 358 358 356 356 356 355 356 355 354 354 353 351 350 349 351 352 353 356 357 356 355 356 355 356 356 356 356 358 360 359 358 358 356 355 355 353 353 352 351 352 352 352 352 351 351 351 352 352 352 351 351 351 351 351 351 351
349 348 348 349 350 352 352 349 349 349 350 352 352 352 354 355 355 355 354 354 355 355 355 357 359 359 359 359 358 358 358 357 356 356 356 357 356 355 356 355 353 351 351 352 353 355 358 359 358 357 356 355 354 354 354 356 358 359 357 357 356 355 354 352 351 351 352 351 352 352 351 352 351 351 351 351 352 352 352 351 350 349 349 350 350
349 348 348 347 349 352 351 349 349 349 349 350 350 350 351 352 354 355 355 355 355 354 354 355 357 359 359 360 359 358 358 358 357 357 357 358 357 357 356 354 353 354 354 354 356 358 359 358 357 358 357 355 354 355 355 356 356 356 355 355 354 353 351 350 351 352 351 351 351 351 352 352 352 351 351 350 350 349 349 349 348 348 348 349 349
348 348 347 345 347 350 350 350 350 349 349 349 349 349 349 349 351 353 354 355 354 354 354 354 355 357 357 357 356 356 357 359 359 359 358 357 357 356 355 354 354 355 355 355 357 358 358 358 357 358 357 355 354 355 355 355 354 354 354 354 353 352 352 351 351 351 350 351 350 351 350 349 348 346 344 344 342 341 340 339 340 345 348 349 350
349 347 345 343 345 347 349 349 349 348 349 349 349 349 350 349 350 352 353 354 354 354 354 353 354 355 356 355 353 353 356 359 360 359 358 358 357 355 355 355 354 355 355 355 357 358 358 359 358 358 357 356 355 355 354 354 353 353 353 353 351 352 352 352 351 350 350 350 350 349 348 345 342 338 336 335 334 334 334 333 336 343 348 348 349
349 347 345 344 344 346 347 348 349 349 347 347 348 349 350 350 351 352 353 353 354 353 351 352 354 355 355 355 353 354 355 355 357 358 358 358 358 356 356 355 355 356 358 358 358 359 359 359 359 358 358 356 355 355 354 353 352 353 353 353 352 351 352 351 350 349 349 349 349 348 345 341 336 334 333 333 332 331 331 335 342 346 346 346 347
350 346 344 344 344 344 344 346 349 350 348 347 347 347 350 350 351 353 354 353 353 353 352 353 354 352 352 355 356 356 354 352 355 357 357 358 358 357 356 356 356 359 359 358 358 359 359 358 358 358 357 356 355 355 354 352 351 351 352 352 351 351 350 349 347 346 345 345 346 345 340 335 333 333 334 333 331 331 333 339 344 345 344 345 347
350 345 343 343 344 344 344 346 349 350 349 348 346 347 349 350 351 352 354 353 353 353 353 354 353 349 351 356 356 355 354 354 356 357 358 358 358 357 357 357 358 359 360 358 358 359 359 358 357 356 355 354 353 354 352 350 349 351 353 352 350 350 350 348 344 342 342 343 344 341 335 333 333 333 333 332 331 333 337 341 342 341 343 346 346
349 345 342 343 344 344 346 348 348 348 349 349 348 348 347 348 350 351 351 352 352 353 355 355 353 350 351 355 356 355 355 356 356 356 357 358 358 357 357 358 358 359 359 359 358 358 357 355 354 354 354 353 353 351 350 349 349 351 353 350 348 350 350 348 344 343 343 342 340 336 333 332 333 333 333 333 332 336 340 340 339 337 338 340 342
345 342 341 342 343 346 347 348 348 346 347 349 349 349 348 349 350 350 349 350 351 353 356 356 354 351 350 353 355 355 355 355 355 355 355 356 357 357 357 357 358 357 357 358 357 357 356 353 352 353 354 352 351 349 349 348 349 350 351 350 350 351 350 346 343 342 341 338 335 333 332 332 332 333 333 332 333 335 337 337 337 336 336 337 338
342 341 341 341 342 344 345 347 348 346 345 347 348 349 349 349 350 351 349 349 350 353 355 354 352 351 351 352 354 354 355 355 354 353 354 355 355 355 356 357 357 356 356 356 356 356 355 353 353 353 352 350 349 348 348 349 348 349 349 349 350 351 348 344 341 339 337 334 333 333 332 332 332 332 332 332 333 334 335 336 336 335 334 335 335
340 340 342 342 343 343 343 346 348 345 345 346 346 346 348 350 352 351 349 348 349 352 352 352 351 350 351 352 353 354 355 354 353 352 351 352 353 355 356 355 355 355 354 354 354 354 353 353 352 352 350 348 348 347 348 348 348 348 348 348 348 348 345 342 340 337 335 333 332 332 332 333 333 334 334 334 334 334 335 335 334 333 330 328 329
340 340 342 343 342 343 344 345 346 347 348 347 345 345 347 348 350 350 349 349 349 351 351 349 350 351 352 353 354 354 354 353 352 350 350 350 351 353 353 354 353 353 352 351 350 350 350 350 350 349 347 346 346 346 346 347 347 346 346 346 346 346 343 340 338 337 334 333 333 333 333 333 333 334 334 334 334 333 332 331 331 330 327 324 324
339 340 342 344 343 343 344 345 346 347 348 347 346 345 346 347 347 348 349 350 349 350 351 350 350 351 352 354 355 355 353 352 351 351 351 350 350 350 351 352 352 351 350 349 348 348 347 346 346 345 345 344 345 345 345 346 346 346 346 344 345 345 343 340 338 336 334 333 333 333 333 332 332 332 332 331 330 329 327 326 325 324 323 322 321
338 339 342 345 344 343 344 345 344 343 344 346 345 343 344 346 346 346 348 351 351 350 351 350 349 350 351 352 354 353 352 351 351 352 352 351 350 349 350 350 348 346 346 347 347 348 346 343 342 342 343 342 343 343 343 342 341 341 342 343 344 344 344 342 339 335 333 333 333 333 332 331 330 329 329 329 327 325 324 323 323 322 321 320 318
338 338 341 344 344 343 344 343 343 343 345 346 345 343 343 344 345 345 347 350 352 350 349 349 348 349 350 351 352 352 352 351 351 351 352 350 350 350 350 348 344 342 343 345 346 344 342 340 340 340 341 341 341 341 341 339 336 335 338 341 343 343 344 343 339 335 333 334 334 333 332 330 329 329 328 327 325 324 323 322 321 320 318 316 314
338 338 340 343 344 343 343 342 343 345 345 345 344 344 343 343 345 346 347 350 352 350 348 348 348 349 349 350 350 351 351 351 351 352 350 350 350 350 349 346 343 342 343 344 343 340 339 339 339 338 339 339 339 338 337 336 335 336 338 340 341 341 341 339 337 334 334 334 335 334 332 330 328 326 326 326 325 322 320 319 318 315 313 312 312
339 339 340 342 343 343 343 342 342 344 344 344 343 343 344 344 345 346 349 350 351 350 348 346 347 347 348 349 350 350 351 351 351 351 350 350 350 349 346 344 343 343 344 344 341 339 339 339 338 337 337 336 336 335 335 336 336 337 338 339 339 338 337 336 335 333 334 335 335 334 332 331 330 327 325 323 322 320 318 316 315 313 311 310 311
341 342 342 342 342 342 342 342 342 342 343 344 343 343 346 347 346 347 350 350 349 349 348 346 346 348 349 350 351 350 350 350 350 350 351 350 349 347 344 343 343 342 344 345 341 339 339 338 337 337 336 335 335 336 337 338 338 338 338 338 337 337 337 337 336 336 336 336 335 335 333 330 328 327 324 320 318 317 316 315 314 313 311 309 311
343 344 343 342 341 341 341 341 341 342 343 343 343 344 347 349 348 348 350 350 348 349 348 348 347 348 349 351 350 349 349 349 350 350 349 348 346 344 342 343 342 343 345 346 342 340 339 338 337 337 336 336 337 338 338 339 339 339 339 338 338 337 335 335 336 337 337 336 336 336 333 326 322 321 320 318 316 315 315 314 313 312 311 310 311
343 343 342 341 340 341 342 342 342 342 343 343 343 346 348 349 348 348 348 348 348 348 349 349 347 347 347 349 349 348 347 348 349 349 347 345 343 342 342 344 343 344 347 346 343 340 339 338 339 339 338 339 339 339 340 340 339 339 339 337 336 334 331 331 335 336 337 337 337 334 328 321 318 317 317 316 315 315 314 313 312 312 311 310 311
342 341 340 339 341 341 341 341 341 342 343 343 344 346 348 348 347 347 346 346 347 348 348 347 346 345 345 345 345 345 346 347 347 347 345 344 344 344 345 345 345 346 348 347 344 340 338 338 339 339 339 341 340 338 338 338 335 334 332 331 329 330 331 332 335 336 336 336 332 326 320 317 317 316 315 315 315 314 314 313 312 311 311 310 310
341 341 338 339 341 341 340 340 341 341 343 344 343 346 349 349 348 348 345 344 346 347 346 345 344 343 343 342 341 342 344 346 346 344 342 341 341 343 345 345 345 347 347 347 344 340 337 339 340 341 341 341 339 335 333 331 328 327 326 325 326 330 333 334 333 331 330 326 322 318 316 316 316 315 315 314 314 314 314 313 312 311 311 310 309
341 339 338 339 341 341 341 342 341 342 343 342 343 346 350 349 349 347 345 345 346 345 344 343 341 341 342 342 340 340 342 343 342 342 341 339 338 339 342 345 347 347 347 347 345 340 339 341 343 342 339 336 334 330 326 324 323 323 323 324 327 332 333 329 327 325 322 319 317 316 316 315 315 315 315 314 313 312 312 313 312 312 311 310 310
Wind_Speed
12 18 21 23 24 23 26 28 25 23 28 32 32 33 34 33 33 34 34 34 35 35 35 33 31 30 29 28 28 28 27 25 24 25 25 23 22 22 22 21 21 21 20 19 19 18 17 15 14 14 13 10 9 8 8 8 9 9 9 10 10 11 10 8 7 10 11 10 8 4 5 12 18 19 18 18 15 13 13 12 13 14 15 15 14
8 12 16 21 24 25 27 29 25 22 25 32 33 33 34 34 34 35 34 35 36 37 36 35 34 32 29 28 28 28 28 27 26 26 24 22 21 22 23 23 23 23 21 20 19 19 17 16 14 14 14 11 9 9 8 8 9 10 10 10 10 10 11 9 7 8 8 6 7 7 4 7 17 20 19 19 17 15 15 14 14 15 17 16 15
8 10 12 19 23 24 26 28 28 24 22 29 33 32 32 34 35 35 35 36 37 38 37 36 35 33 30 28 26 26 26 26 25 23 21 20 21 22 23 24 25 23 22 20 19 19 17 16 14 13 14 12 10 9 9 9 10 11 10 11 11 11 11 10 8 7 8 8 6 5 3 2 7 12 17 20 19 18 19 17 17 17 17 17 17
10 10 11 15 20 22 23 26 28 25 22 26 31 30 30 32 34 35 37 38 38 39 38 37 34 32 30 28 24 23 23 22 22 21 21 21 22 23 24 25 26 24 21 20 19 18 17 15 14 13 13 13 12 10 10 11 10 11 10 10 10 12 12 10 8 8 9 8 4 3 2 2 1 6 12 18 20 22 22 21 20 20 18 18 19
11 11 11 13 17 21 23 26 27 25 23 26 30 30 29 31 33 34 37 38 39 39 39 36 32 30 29 26 21 20 19 19 20 22 24 25 25 24 22 22 25 24 20 19 19 17 16 14 13 13 13 13 13 12 11 11 10 10 10 9 9 11 12 12 11 10 10 9 5 4 3 1 2 3 5 8 16 23 24 24 23 21 20 20 21
10 11 11 12 16 20 23 26 26 25 24 24 27 30 30 32 33 33 35 38 38 39 38 35 32 31 30 26 22 20 20 20 22 23 25 26 25 25 21 20 24 23 20 19 18 17 16 14 13 12 12 12 12 11 11 11 11 10 9 9 9 10 12 13 13 12 11 9 6 5 5 6 5 2 1 2 6 13 18 22 24 23 22 22 22
8 9 9 11 15 18 21 25 27 27 26 23 23 28 30 32 35 34 34 36 36 37 37 35 33 32 31 29 27 25 23 24 24 24 24 24 24 24 22 21 23 22 20 19 18 17 15 13 11 11 11 12 12 12 11 11 11 9 8 9 10 11 12 12 12 11 9 6 5 6 7 6 6 4 1 2 3 5 10 15 19 22 24 24 24
8 8 9 9 14 18 21 25 27 28 28 24 22 26 30 33 36 36 35 35 35 35 37 36 34 32 31 30 28 27 26 26 25 24 24 24 24 24 22 22 23 23 20 19 19 17 15 13 11 10 10 11 13 13 12 11 11 9 8 9 9 10 11 11 11 10 8 8 8 9 9 7 9 8 5 4 2 2 6 8 10 14 18 22 23
9 9 9 9 13 20 23 25 27 28 29 27 22 23 29 33 35 36 35 35 35 36 37 37 35 33 32 30 28 28 28 27 24 21 22 25 25 24 23 23 23 23 22 20 19 18 16 15 13 12 13 12 13 14 14 12 12 11 10 10 10 10 10 11 11 9 7 8 9 9 9 8 9 8 6 5 3 3 4 4 6 7 10 14 15
8 8 8 10 14 20 23 24 26 27 27 28 23 20 26 32 35 36 35 35 36 36 37 37 35 33 32 31 29 28 27 26 22 19 20 22 23 22 23 23 23 23 23 22 20 18 17 16 16 16 15 14 14 14 15 15 14 12 11 11 11 11 10 9 9 8 8 9 8 8 8 8 7 4 5 7 5 4 4 4 7 7 6 6 5
7 7 8 11 15 19 20 21 24 25 26 26 23 20 25 31 34 36 36 35 36 36 38 37 36 34 33 32 31 30 28 26 23 21 20 20 19 18 20 22 23 24 23 23 21 19 18 18 18 18 16 16 15 14 15 17 16 13 12 12 13 12 11 10 11 10 11 11 9 8 7 8 6 5 9 12 7 4 4 4 8 8 6 4 5
7 8 8 9 11 14 17 20 22 24 27 27 23 22 25 29 32 33 33 35 35 36 37 37 36 35 33 33 33 31 30 27 25 23 22 21 21 19 17 18 22 24 24 24 22 20 19 19 19 19 18 18 17 15 14 16 17 14 12 13 14 13 13 12 12 11 12 13 12 10 9 9 8 8 10 10 5 3 2 2 5 7 4 4 6
4 5 7 7 8 11 15 20 21 23 27 26 23 24 25 27 31 32 32 34 34 35 36 36 35 35 34 34 33 32 31 29 27 26 24 23 23 22 19 17 21 24 25 24 22 20 20 20 20 21 20 19 17 14 12 14 16 14 13 13 13 14 15 15 15 13 10 10 10 10 10 9 10 9 7 6 4 2 3 2 3 4 3 5 7
5 4 4 5 7 11 15 19 21 22 24 25 24 26 26 26 30 33 33 33 34 35 36 35 36 36 36 35 34 33 32 30 28 27 26 24 23 24 23 21 21 23 24 23 21 20 19 20 21 21 20 19 17 14 12 13 14 14 14 14 11 10 12 13 16 15 12 10 9 9 9 9 9 9 6 4 3 2 3 3 2 3 4 4 4
8 7 6 6 6 10 16 19 22 23 24 25 25 26 27 26 29 33 34 33 34 35 36 36 37 36 36 35 34 33 33 32 30 28 27 26 24 24 25 24 22 23 22 21 19 19 20 20 21 21 19 18 17 15 14 14 14 15 15 12 8 6 6 7 9 12 13 13 11 11 11 10 8 6 3 1 3 4 4 3 2 2 2 3 3
8 8 7 8 11 11 15 18 21 24 25 26 27 28 28 27 29 32 34 35 34 35 37 37 37 36 35 35 34 33 32 31 30 29 28 26 24 24 25 25 23 22 21 20 19 20 21 22 21 21 19 18 18 16 17 17 16 16 16 13 10 8 8 7 6 6 7 8 8 7 7 6 5 4 3 3 5 6 5 4 3 0 1 2 3
7 7 8 8 11 12 15 21 22 23 25 27 28 29 29 28 29 31 33 34 35 35 37 37 35 34 34 34 33 31 31 30 31 30 28 27 25 23 25 26 23 22 21 20 21 22 22 22 22 21 20 19 19 17 17 17 17 18 18 16 14 11 10 10 9 7 7 6 7 7 6 6 6 7 8 8 8 9 8 6 6 3 3 3 2
7 7 8 8 10 13 13 19 24 24 26 28 29 29 30 30 30 30 29 31 35 36 35 32 32 32 32 33 32 31 31 30 30 29 28 27 25 23 25 26 24 23 22 21 23 23 23 23 23 22 21 21 19 18 18 17 16 17 18 16 14 12 11 10 10 10 9 9 9 9 8 7 7 6 7 8 9 10 9 7 7 6 5 5 5
8 8 8 8 9 13 15 14 20 24 25 26 28 28 29 31 30 29 29 32 36 36 32 31 32 33 33 33 33 32 31 30 29 29 28 28 27 24 24 24 23 23 23 24 25 25 24 24 24 23 22 21 20 19 18 18 17 17 16 14 12 11 12 12 11 11 10 9 9 8 7 7 6 5 5 7 8 8 8 7 7 6 6 6 6
8 8 8 9 11 15 17 15 13 21 23 23 27 28 28 28 27 29 32 35 37 35 33 34 34 34 33 32 33 32 31 31 29 29 29 30 29 26 23 22 22 24 24 25 26 27 26 25 25 25 24 23 22 20 19 20 20 17 14 13 12 12 12 11 10 9 9 8 8 8 8 8 7 7 7 8 7 7 6 5 5 6 6 5 6
8 8 9 9 12 16 19 18 11 16 23 23 26 27 27 29 29 29 33 36 37 36 35 37 36 34 33 32 33 33 32 31 30 29 30 30 29 27 25 23 22 23 24 24 26 26 25 25 25 25 25 23 22 21 20 20 21 18 15 14 14 13 12 11 9 8 7 8 9 10 10 10 10 10 10 9 8 7 8 9 9 9 9 8 6
7 8 9 9 11 15 18 18 11 8 21 24 26 26 28 32 32 31 33 36 38 38 37 38 37 35 34 34 34 33 32 32 31 31 30 30 29 28 26 24 24 25 23 21 23 26 24 22 23 23 23 23 22 21 21 21 20 19 17 17 16 14 12 11 10 9 9 9 10 10 10 11 11 11 10 10 9 8 9 11 13 11 11 10 7
6 8 8 8 11 14 16 13 8 4 16 21 24 27 31 34 32 30 31 35 37 38 38 39 38 36 35 35 34 33 32 32 32 32 31 30 28 26 25 24 21 18 16 14 15 20 23 22 21 23 23 23 22 20 20 22 21 20 19 18 16 15 14 12 11 10 10 10 10 11 11 11 11 11 10 10 9 8 8 9 10 10 9 9 7
6 7 7 8 11 13 13 8 6 6 11 16 20 25 28 31 31 31 33 36 37 37 37 38 38 37 36 35 34 32 32 32 32 32 30 28 28 28 23 14 5 1 3 7 8 14 20 24 24 23 24 25 23 20 19 21 21 20 19 18 16 14 13 12 11 11 11 11 11 11 11 10 10 9 9 8 8 7 6 6 7 8 8 8 7
6 7 8 8 9 9 11 7 3 9 12 17 20 23 25 28 30 30 30 32 34 35 36 37 37 37 36 35 34 32 31 31 32 30 28 28 27 17 4 11 9 3 3 9 13 16 18 23 25 23 24 24 22 19 18 19 19 18 17 16 15 13 12 11 11 11 11 11 11 10 9 8 6 6 5 5 5 5 6 6 6 6 7 7 7
7 7 7 8 8 8 11 11 4 10 14 18 22 24 26 27 28 26 25 26 28 30 33 35 35 35 35 35 33 32 31 31 30 27 26 24 16 8 13 12 3 5 8 15 20 17 16 20 23 22 22 22 21 20 19 18 17 16 16 14 13 11 10 10 9 9 9 9 7 7 6 4 4 4 3 4 5 5 6 7 7 6 6 7 8
6 5 5 6 8 8 11 14 11 3 8 13 16 19 22 24 25 25 27 28 29 30 31 33 34 33 35 35 34 32 31 30 27 24 21 17 11 9 9 10 11 11 13 17 19 17 15 18 20 20 21 21 20 18 16 15 14 14 13 12 10 9 8 7 7 6 5 5 4 4 4 4 3 3 4 4 5 6 7 7 7 6 6 7 8
8 7 6 5 7 8 9 14 15 7 1 6 8 9 13 18 21 23 26 30 31 31 31 32 33 33 34 35 34 32 30 28 23 20 17 14 12 11 14 17 16 14 13 15 19 19 17 15 16 17 18 18 18 16 14 14 14 13 11 10 8 7 6 5 4 4 4 4 3 3 2 1 1 2 3 5 5 6 6 6 5 5 6 8 9
10 10 9 5 5 6 8 13 16 9 2 6 8 7 8 11 13 15 19 24 26 28 30 31 32 33 33 33 31 27 25 23 19 17 17 16 16 17 16 17 17 15 13 16 20 21 19 16 14 14 15 16 15 14 14 14 13 11 9 8 6 6 6 5 5 5 5 4 4 3 2 1 1 1 2 3 4 4 5 4 4 5 6 7 8
11 11 11 8 5 5 7 11 16 13 7 8 10 10 10 9 8 10 16 20 20 22 26 28 30 32 32 29 24 20 19 17 16 17 18 19 20 20 18 18 18 16 16 19 20 20 18 16 15 14 14 13 11 11 12 11 10 9 8 8 8 8 7 7 7 6 6 5 5 4 4 3 2 1 1 1 2 2 4 5 5 5 6 7 8
11 12 12 11 10 7 6 9 14 17 13 11 11 11 12 11 9 9 14 18 18 20 25 27 25 27 26 20 15 13 13 15 17 18 19 21 21 20 19 20 20 18 19 20 21 21 19 16 15 14 13 12 11 11 11 9 9 9 9 10 11 10 9 9 8 8 8 8 7 7 7 6 4 2 1 2 3 4 5 6 6 6 6 7 8
11 12 12 13 13 11 10 10 12 17 16 12 12 13 15 15 13 12 14 16 16 17 20 22 18 17 15 11 14 13 12 14 17 20 21 21 21 19 19 19 20 21 22 22 22 21 19 17 15 14 13 12 12 11 10 10 10 11 10 11 12 10 10 10 11 11 11 10 10 9 8 5 3 3 3 3 4 5 5 5 5 5 6 7 8
10 11 11 11 13 13 15 16 13 16 17 13 10 9 9 11 13 13 15 19 19 13 10 14 14 7 11 17 17 15 14 14 19 22 23 22 21 20 20 20 22 23 24 24 22 20 18 17 15 15 14 13 11 11 10 10 11 12 12 12 11 10 11 12 12 12 11 10 10 9 6 3 3 4 4 4 4 3 3 2 2 3 5 6 6
9 10 9 9 12 16 19 21 17 13 13 12 10 10 9 7 9 14 18 22 23 19 15 10 4 7 16 14 10 13 15 19 21 21 22 23 23 22 21 21 22 23 23 23 22 19 17 16 15 15 14 13 12 12 11 10 11 13 13 11 10 11 13 14 13 12 10 9 9 6 4 4 4 5 5 6 6 4 3 3 3 3 4 5 4
9 10 9 10 14 18 21 22 20 16 12 10 9 10 12 10 7 12 18 20 18 17 18 17 14 12 12 11 13 17 19 21 21 21 23 25 24 22 20 20 21 21 22 21 20 19 18 16 16 15 14 13 13 13 11 10 12 15 13 11 12 14 14 14 13 11 10 9 8 5 5 5 5 6 7 7 7 7 7 7 8 8 8 7 7
8 9 10 13 17 19 21 21 19 17 14 11 12 12 11 12 10 9 12 12 11 12 15 18 19 18 16 16 18 19 20 21 22 22 24 25 24 21 20 20 20 21 20 20 20 20 19 18 17 15 14 13 13 13 12 11 14 16 14 13 14 14 13 14 14 12 11 9 7 5 6 6 6 7 8 8 8 7 7 9 11 12 11 10 10
9 11 13 17 20 21 21 20 19 17 14 13 16 15 11 11 12 11 10 9 9 12 16 18 20 21 19 18 19 19 18 20 21 21 22 24 24 23 22 22 21 21 21 21 22 21 19 18 17 15 14 15 15 13 12 14 16 16 15 14 14 13 13 16 15 13 12 10 8 7 7 6 7 8 9 9 9 8 9 10 12 13 13 13 13
14 15 15 17 20 21 20 19 19 18 15 15 16 15 12 8 7 10 12 10 9 10 12 12 13 17 19 19 19 18 17 18 18 18 19 23 25 24 23 23 23 23 23 23 23 22 20 18 17 16 15 16 16 14 14 14 15 15 15 14 13 14 17 18 16 14 12 11 10 9 8 8 9 10 10 10 11 11 12 14 14 15 17 17 16
20 19 13 13 18 21 19 16 17 18 18 17 16 16 13 7 2 6 11 12 9 7 5 4 6 10 15 18 19 18 17 18 16 12 10 16 23 25 24 24 24 23 23 23 23 22 21 19 18 17 17 17 17 15 14 14 14 14 15 15 15 17 20 19 17 15 13 12 12 11 10 10 11 11 11 11 12 13 14 15 15 17 19 19 17
22 23 14 10 14 19 18 16 16 18 19 19 18 17 15 10 4 3 8 11 8 4 5 7 8 10 13 15 16 18 18 17 16 13 9 9 17 23 24 23 23 22 22 22 21 20 19 18 17 17 18 18 17 16 14 14 14 14 14 15 16 20 21 19 17 16 14 14 13 13 13 13 13 13 13 13 14 14 15 15 15 17 18 17 15
17 23 18 12 12 14 16 16 16 16 19 21 21 19 18 14 9 5 6 7 6 6 6 7 9 11 13 15 16 17 16 12 14 18 16 13 14 18 21 22 22 22 22 23 22 19 16 15 16 18 19 18 17 17 16 15 14 13 12 13 15 18 19 18 17 15 14 15 14 14 14 14 14 14 14 14 14 14 15 16 16 16 15 14 14
14 18 18 14 13 15 17 18 18 18 18 19 18 18 19 18 13 8 5 2 6 11 12 11 10 10 12 15 15 16 15 13 13 16 17 15 13 14 16 17 18 21 23 22 21 19 18 18 19 20 20 19 18 16 16 14 13 12 11 11 13 16 18 17 16 16 15 15 15 15 15 14 14 14 13 14 14 15 15 16 15 14 13 13 14
15 17 17 14 12 12 13 14 17 16 13 10 8 8 10 13 12 8 4 3 7 12 13 12 12 12 12 14 15 16 16 16 17 17 16 16 14 14 16 17 18 22 22 20 19 20 21 21 22 21 20 19 17 15 14 14 12 12 12 11 13 16 16 14 15 15 15 15 14 14 14 14 13 13 12 13 14 14 14 14 13 12 13 14 14
16 17 18 18 14 9 5 6 10 8 3 1 4 3 4 3 6 6 7 7 10 13 15 17 17 15 15 16 18 19 20 21 22 20 18 19 18 19 20 20 21 24 24 20 20 22 24 23 23 22 21 19 18 17 15 14 13 14 14 14 15 16 14 13 13 14 15 14 13 13 14 14 13 14 14 14 14 14 14 14 15 15 16 15 14
16 14 15 19 17 11 6 6 9 8 5 4 5 4 4 6 8 9 9 10 11 14 16 18 19 18 18 20 20 21 24 25 25 23 23 23 24 24 22 22 24 27 27 23 23 25 26 25 24 24 23 21 20 20 19 17 16 15 16 15 15 14 13 12 14 15 14 13 13 13 14 13 13 14 16 16 15 15 16 16 17 18 19 17 14
12 10 12 17 16 11 11 12 13 12 8 4 3 3 4 6 7 9 10 11 13 14 15 17 19 19 21 24 25 26 27 26 25 26 26 26 27 27 25 24 25 25 25 25 25 25 25 25 25 24 23 22 22 21 20 18 17 16 16 15 14 14 13 12 13 14 13 12 13 14 14 14 14 15 16 17 17 17 17 18 19 20 21 19 15
9 10 12 15 13 12 16 14 14 15 11 8 6 5 6 8 9 12 13 13 15 16 16 16 18 21 25 29 29 26 25 25 25 26 26 24 24 24 25 25 25 23 22 23 25 24 24 24 23 23 22 22 21 20 18 16 15 15 15 13 12 13 12 11 12 14 13 13 13 13 14 16 17 18 17 17 17 17 18 19 19 20 22 20 16
11 11 12 11 8 16 17 13 13 15 11 8 8 6 8 9 11 15 17 17 17 17 17 16 18 20 24 28 29 25 24 26 26 26 26 23 22 22 23 25 27 26 24 24 24 24 25 25 24 23 22 21 19 17 16 15 13 13 13 11 10 10 10 11 14 14 13 12 13 15 17 18 19 19 18 17 16 17 18 18 18 18 20 20 15
12 11 11 7 14 19 16 12 13 14 12 10 9 8 9 10 12 15 18 18 17 17 17 19 21 21 19 20 23 26 28 30 29 27 27 24 22 22 23 24 26 28 28 27 26 25 26 26 26 26 24 22 20 18 16 14 13 12 11 10 10 11 12 13 14 14 14 15 17 19 20 18 18 18 17 16 16 15 15 15 14 14 16 17 15
14 11 9 8 20 20 15 12 11 12 13 12 11 10 9 10 12 15 17 18 17 17 19 20 22 23 22 21 22 26 29 31 30 28 27 23 20 21 23 23 24 25 26 27 27 28 29 29 27 25 22 21 21 19 16 14 12 10 9 9 11 14 15 15 16 17 19 21 22 22 20 17 16 16 15 15 15 13 11 11 11 10 11 12 13
14 11 6 14 19 16 15 15 13 12 12 12 12 10 8 9 11 14 16 16 15 17 19 19 20 22 25 27 27 27 28 29 29 29 29 26 22 19 19 21 22 22 23 25 26 28 29 27 24 23 21 20 20 18 16 13 11 9 10 12 14 16 17 19 20 21 23 23 23 21 20 17 16 15 14 14 14 11 9 8 7 7 7 8 10
Wind_Direction
199 201 201 202 210 218 214 207 213 219 212 207 204 201 201 200 200 200 200 200 199 200 202 205 206 210 214 218 221 222 224 225 225 228 234 241 242 239 240 244 249 250 248 247 249 251 251 250 242 231 234 246 259 266 263 255 259 276 289 299 304 301 295 288 295 311 311 309 324 332 241 230 224 219 220 220 220 228 235 246 253 249 248 249 252
184 196 199 201 208 217 218 214 218 221 207 202 201 199 200 201 201 200 199 198 198 199 201 203 206 209 212 215 217 217 220 224 228 231 235 241 242 240 242 247 250 249 245 245 248 248 248 248 242 234 231 235 250 259 261 256 260 270 277 287 291 290 293 283 284 308 311 312 330 333 312 226 222 223 225 225 222 228 234 242 250 249 250 252 253
181 190 191 197 205 211 216 219 223 222 208 199 197 197 198 200 202 201 199 198 198 200 201 203 206 209 211 214 216 216 220 226 230 234 237 240 243 244 247 251 251 246 242 243 244 242 245 246 243 238 230 230 243 250 253 258 262 266 270 280 279 278 284 277 274 300 308 312 327 317 301 186 219 229 227 229 228 229 232 238 245 247 252 255 254
188 192 192 195 200 205 211 218 220 220 218 208 200 199 199 199 199 199 198 198 198 199 201 204 206 209 210 213 217 217 221 226 230 236 239 241 244 248 251 253 249 241 237 239 239 239 243 245 243 240 233 231 238 242 250 258 261 267 267 268 271 274 280 279 280 301 314 318 323 289 295 83 231 230 220 227 230 230 231 236 242 246 250 253 252
187 192 195 196 199 202 206 212 214 215 220 214 205 204 205 202 198 195 196 196 197 199 201 202 203 205 207 210 215 217 220 223 227 232 238 242 244 247 252 251 240 233 233 234 236 239 241 244 243 241 236 230 233 240 249 256 262 269 264 259 263 267 275 284 290 302 314 306 280 277 304 309 263 234 216 231 229 229 234 237 239 245 250 249 249
191 192 195 196 199 201 204 208 211 216 218 213 209 208 207 205 200 194 193 193 195 198 199 200 200 201 203 206 210 214 219 222 225 231 238 242 243 244 248 242 231 227 229 232 235 238 240 244 242 238 235 225 228 245 253 254 263 265 256 256 262 266 274 279 284 298 312 300 278 291 284 263 277 270 194 272 247 239 243 243 242 245 251 250 248
195 195 196 198 198 197 201 205 208 215 216 213 213 210 206 203 199 196 194 193 195 196 197 198 199 201 204 207 211 215 220 225 228 233 241 244 241 240 243 238 228 225 229 233 235 237 238 241 239 233 233 228 232 249 254 253 262 264 255 259 270 277 271 265 274 294 310 304 293 314 313 303 323 331 242 262 309 283 269 261 254 251 253 255 254
191 194 195 194 193 195 199 203 206 210 211 213 216 210 204 200 198 197 197 195 195 196 197 198 200 202 205 208 212 216 221 227 229 234 243 244 237 236 239 236 228 225 230 234 235 236 236 235 234 233 233 232 234 243 247 251 260 263 261 263 270 274 265 258 267 281 297 307 306 311 320 333 339 340 316 261 221 265 293 289 272 261 257 258 261
191 192 194 192 191 196 199 201 205 206 206 209 217 212 202 200 198 196 196 196 196 196 197 199 202 204 205 207 212 217 222 228 229 234 243 238 233 235 236 231 225 224 229 233 235 237 237 235 235 237 235 233 235 239 241 245 254 261 262 260 261 266 263 258 262 265 277 296 307 311 320 331 334 340 330 296 244 232 274 287 285 282 263 262 273
199 196 196 196 196 200 201 201 203 205 205 208 216 215 201 197 197 195 195 196 196 197 198 200 203 204 206 208 212 217 221 226 227 232 236 229 228 231 227 222 223 224 226 230 234 237 237 236 237 237 238 237 238 240 238 237 245 256 259 256 257 262 257 249 253 262 272 280 294 308 321 329 329 333 320 313 297 249 254 279 293 305 288 285 339
203 203 201 200 201 204 203 204 204 202 206 212 217 214 199 194 194 193 195 195 196 197 198 200 202 204 208 210 214 217 219 223 225 228 230 225 223 223 220 220 224 225 226 227 230 232 233 235 237 238 239 239 240 245 242 234 236 247 256 258 258 254 247 248 254 261 269 272 274 286 306 317 315 308 305 309 308 278 273 287 307 326 311 300 27
210 204 201 196 196 201 201 206 207 199 203 214 218 208 195 191 192 191 192 194 195 197 198 200 202 204 209 212 214 218 220 222 224 224 227 226 226 228 228 227 226 225 225 226 226 226 227 230 235 237 237 237 240 249 246 231 231 240 251 258 259 252 244 246 250 255 267 270 268 272 283 295 302 314 318 316 320 322 314 296 319 338 321 306 351
258 230 214 200 189 195 197 202 205 199 201 210 215 206 192 188 191 191 192 194 195 197 198 200 202 205 209 212 215 219 220 222 225 225 225 227 228 231 233 228 223 221 221 223 224 222 223 227 231 234 234 235 240 247 242 227 226 233 247 260 264 258 250 246 245 248 259 267 268 272 274 278 289 306 321 323 327 357 38 29 332 322 288 298 329
348 319 268 235 209 198 196 199 203 202 202 205 210 209 197 187 188 191 192 194 196 197 199 201 204 207 209 212 215 217 217 219 223 224 225 228 228 228 233 231 222 219 219 221 222 220 223 227 231 234 234 237 241 240 233 224 223 232 250 262 264 258 252 247 247 248 253 258 264 273 278 279 284 293 302 312 325 354 33 43 360 318 286 281 310
2 351 337 313 278 224 203 198 201 202 203 203 205 207 201 191 189 191 191 193 195 197 198 201 204 206 209 211 214 216 216 218 221 223 224 227 228 229 233 232 225 222 222 224 224 222 224 229 232 235 236 238 240 235 229 230 234 242 250 252 243 235 239 243 248 252 255 256 259 268 275 277 279 289 300 9 18 8 16 20 20 8 316 300 311
353 348 343 333 317 271 219 203 202 203 202 201 202 203 201 195 192 193 193 193 194 196 198 201 203 205 207 210 213 215 217 219 221 224 226 228 231 233 235 231 226 224 225 229 230 226 226 230 233 237 238 238 237 233 229 233 241 243 240 240 240 243 253 259 257 250 249 250 256 267 271 269 274 295 310 331 349 347 342 330 332 49 202 295 317
342 336 330 321 321 299 240 212 204 201 200 200 201 201 201 198 195 195 195 193 194 198 199 201 202 203 206 209 212 215 217 220 223 225 228 230 233 239 237 230 227 227 227 233 236 232 230 232 235 239 239 237 236 233 228 232 241 239 234 242 250 250 258 264 259 250 248 257 273 282 285 287 290 295 299 302 311 319 320 316 313 286 224 219 240
330 325 323 312 318 316 276 228 209 201 200 200 200 198 198 201 199 193 191 194 197 199 198 198 199 202 206 210 212 215 219 221 224 226 230 232 235 238 233 227 229 232 231 235 239 237 235 234 236 239 238 236 235 232 230 233 238 235 235 245 246 238 245 254 254 255 262 274 284 285 285 290 291 290 298 303 307 315 319 314 308 292 260 231 219
333 328 326 317 310 316 309 267 223 207 202 201 199 195 193 200 201 193 193 201 202 199 194 195 201 205 208 212 214 216 219 221 224 226 229 230 232 234 231 226 230 234 233 235 238 238 239 237 236 237 236 236 234 231 233 235 234 233 238 242 234 226 233 241 246 256 268 281 288 284 279 278 272 271 287 300 306 313 315 315 317 303 275 257 244
330 325 319 314 307 305 311 306 252 213 204 202 199 195 192 195 198 195 197 204 204 197 192 195 204 209 210 212 214 216 219 221 223 226 227 229 229 230 230 229 231 236 236 236 238 238 238 237 236 235 233 234 235 232 233 234 233 234 235 231 222 216 220 228 239 250 262 272 275 273 273 271 269 274 281 286 293 300 298 302 319 310 291 283 270
326 320 313 308 307 304 308 319 298 217 203 199 197 194 192 194 195 193 194 199 201 198 194 198 206 209 210 211 214 216 218 220 222 226 227 228 228 229 230 230 234 239 240 241 240 236 232 232 233 232 230 231 233 232 232 232 231 230 227 222 218 215 216 227 239 246 247 249 250 253 260 267 273 279 279 277 277 279 276 274 277 281 284 289 281
322 317 317 307 303 306 306 319 328 212 196 195 192 187 188 194 195 193 193 197 201 199 197 202 207 208 209 213 215 216 217 218 221 224 226 226 227 229 229 229 234 240 243 243 236 227 225 226 225 223 224 225 228 229 230 231 230 228 225 223 221 222 226 233 239 241 239 238 241 248 256 265 274 280 279 275 273 278 283 283 281 278 279 283 279
323 317 320 311 307 310 304 315 355 161 187 188 186 185 189 194 194 192 194 199 204 203 201 205 209 209 210 213 215 216 216 218 220 222 224 224 224 227 227 230 236 240 238 232 229 230 227 221 217 216 216 217 221 225 228 230 230 227 223 221 223 227 231 233 235 238 240 244 250 257 263 268 275 281 282 277 275 281 286 286 287 284 279 278 278
330 322 321 316 313 313 303 311 43 108 168 175 180 187 191 194 193 194 198 202 206 205 204 206 208 210 212 212 213 215 215 218 221 222 224 224 227 230 230 232 243 283 212 201 229 260 242 219 212 213 211 213 217 220 224 227 227 223 219 219 221 225 228 230 235 242 248 256 262 266 271 276 279 283 285 281 275 275 276 279 286 287 281 281 281
335 325 324 322 316 311 300 294 104 126 159 174 181 186 189 193 195 197 201 205 209 208 207 208 209 210 213 213 213 214 214 217 220 222 224 227 229 223 149 58 47 21 285 223 227 260 252 220 211 209 206 209 212 212 213 213 213 212 211 214 218 221 228 237 247 255 262 268 271 272 275 279 283 287 286 279 274 272 277 283 287 291 290 289 287
330 322 320 320 313 304 297 290 241 154 166 180 186 190 193 195 199 202 203 207 216 219 212 208 209 211 213 214 214 213 214 217 219 220 223 223 214 153 90 58 24 226 230 222 218 234 240 217 207 202 198 199 201 200 198 194 195 200 204 211 219 226 237 247 255 263 269 273 273 272 269 260 265 282 282 281 291 298 298 293 288 293 298 296 296
318 316 315 315 311 307 300 296 290 222 168 182 193 200 201 200 202 207 205 206 218 227 219 210 208 210 213 215 215 214 215 218 218 219 221 213 187 163 188 224 228 204 202 207 204 211 219 209 199 194 192 192 190 188 188 191 196 202 206 214 225 235 244 249 254 256 251 247 247 242 239 238 250 276 287 297 307 307 304 300 293 292 298 300 303
322 326 327 320 309 305 300 295 295 301 166 191 209 219 217 213 212 211 209 210 215 221 220 213 208 210 213 214 215 215 215 217 218 217 215 200 184 194 210 216 216 209 206 203 197 199 203 194 185 185 188 191 192 194 200 207 207 207 212 220 226 230 232 228 219 205 196 198 206 209 213 238 292 310 302 303 308 305 303 308 307 305 304 301 303
325 325 326 327 305 288 288 291 289 287 228 201 218 233 238 235 233 227 226 224 220 220 223 217 209 210 214 214 214 213 212 212 210 206 202 193 193 205 212 212 212 208 202 198 193 190 190 186 182 185 190 195 201 204 206 206 204 203 207 206 198 196 191 177 165 162 164 162 152 144 133 96 36 348 300 289 294 303 310 320 325 322 318 310 306
321 320 321 323 310 281 280 285 278 265 229 199 207 210 211 222 237 243 243 241 232 227 231 227 214 210 214 213 207 200 197 196 189 186 189 190 196 205 208 203 196 187 185 189 190 187 190 195 194 191 192 193 195 196 194 195 198 194 187 175 165 164 160 151 149 148 146 141 133 127 118 105 93 74 12 302 298 305 308 308 307 309 317 316 309
317 319 320 323 324 317 308 292 270 255 233 208 202 194 189 193 203 226 247 253 246 239 243 242 226 215 216 209 182 166 166 168 173 182 186 189 194 197 194 190 185 181 182 190 197 196 194 197 196 191 188 184 182 185 183 179 176 171 167 163 156 151 145 142 141 139 139 140 133 122 112 105 93 67 10 312 294 290 290 292 290 288 298 306 302
314 316 320 323 324 324 325 314 277 254 244 226 204 188 181 179 181 201 225 231 234 244 255 258 247 227 209 164 131 136 148 161 186 200 196 191 192 191 189 190 189 188 189 193 197 196 190 190 190 187 187 187 184 180 172 164 161 159 161 161 153 146 142 142 139 136 137 136 128 118 109 97 70 19 330 303 292 288 289 294 293 283 285 297 299
303 308 316 322 321 319 318 316 291 260 254 255 239 216 201 186 181 190 198 200 204 215 242 266 269 231 142 120 123 141 161 191 207 205 198 196 198 199 200 199 194 190 189 189 190 188 185 186 186 185 189 188 181 173 167 163 159 156 157 157 151 145 145 143 138 133 129 127 125 120 106 74 33 13 356 348 346 331 316 317 309 299 309 321 321
292 303 318 322 318 316 314 312 307 289 274 275 282 282 276 247 197 186 189 195 199 195 186 197 212 120 117 124 151 169 188 211 206 190 191 202 207 208 206 200 193 188 187 187 186 184 182 182 185 188 186 179 172 169 169 169 164 157 154 152 149 144 142 138 131 125 122 123 125 118 89 59 37 28 26 23 26 43 57 56 49 25 15 22 25
294 312 327 324 318 318 315 312 312 316 310 298 303 302 294 289 250 201 195 199 202 196 181 164 146 138 149 176 200 200 204 210 197 182 190 201 204 205 199 191 189 189 188 189 187 185 183 181 183 184 179 173 171 169 168 166 163 160 154 146 143 140 137 134 131 129 128 127 125 107 73 60 48 40 37 35 42 60 74 77 73 65 60 64 70
292 310 320 323 318 311 310 309 312 325 333 331 335 333 321 317 306 254 221 213 201 185 178 168 163 171 183 188 195 199 201 202 194 183 183 188 192 196 194 189 189 188 187 188 187 184 180 176 175 177 175 172 170 166 163 159 159 162 158 146 141 139 140 141 138 136 134 126 116 97 78 68 56 49 43 40 48 65 84 88 79 71 68 69 69
292 307 319 326 321 309 311 318 319 325 336 345 349 349 347 341 323 293 266 247 217 188 182 178 169 169 176 182 186 189 195 201 195 181 176 181 187 193 195 194 191 187 186 186 182 177 175 171 169 170 172 170 165 161 159 157 160 163 159 151 148 145 147 145 137 132 129 119 105 92 84 76 69 65 60 57 64 78 90 88 78 70 68 65 62
301 311 323 328 322 316 321 326 322 323 335 348 353 354 355 353 315 276 262 249 229 205 196 188 170 167 176 184 188 192 201 207 198 184 181 183 186 192 197 198 194 187 182 179 175 172 173 171 168 168 169 166 159 155 155 155 157 159 157 158 159 152 148 145 136 130 126 115 104 95 87 85 84 81 78 75 74 79 82 80 76 71 65 59 55
308 311 318 317 318 323 329 327 322 330 345 354 355 354 354 355 299 242 242 238 225 206 184 143 131 155 173 183 191 199 207 208 201 196 192 186 186 192 195 195 193 186 177 172 169 166 167 169 168 165 161 155 148 146 148 148 147 150 154 158 160 153 147 142 136 129 121 111 105 100 95 95 94 90 87 83 78 75 74 71 69 67 62 56 51
303 309 311 298 308 322 328 326 324 332 347 356 355 354 352 347 332 244 231 233 221 170 116 108 119 138 157 174 191 201 207 206 199 202 215 205 192 192 192 189 186 180 168 159 155 153 156 161 162 154 147 143 139 135 135 138 140 144 150 156 158 154 147 141 135 128 118 111 107 105 103 101 97 93 90 85 77 70 66 63 59 58 57 52 47
302 311 310 288 286 304 311 320 331 340 349 356 360 358 352 343 329 295 258 243 216 184 178 181 169 158 165 176 188 195 196 191 191 200 211 218 209 198 190 183 175 163 147 139 140 145 148 148 145 140 136 133 131 129 127 131 135 138 143 149 153 152 149 142 132 123 117 115 111 110 110 106 100 95 88 81 74 67 64 63 61 61 60 50 39
321 320 313 297 293 301 308 326 350 5 3 359 4 5 355 344 331 312 297 259 198 201 210 210 192 175 174 177 180 186 188 187 196 205 203 199 198 192 179 167 154 140 133 133 139 142 141 136 132 132 131 127 126 125 124 126 130 132 136 142 144 149 152 145 130 121 119 119 117 117 116 110 104 96 85 78 76 72 69 69 68 64 57 44 35
332 324 318 308 296 293 300 324 351 13 22 10 7 20 6 342 322 300 267 201 186 192 192 186 179 175 168 165 173 184 188 190 199 203 188 168 165 170 164 149 133 130 135 142 144 139 135 133 129 127 126 123 121 120 120 121 123 125 129 134 136 143 150 144 130 124 124 124 125 125 121 115 106 96 90 88 86 81 77 74 68 59 50 42 39
325 321 324 321 316 316 317 321 330 347 43 209 243 179 149 216 244 224 203 195 187 181 173 168 170 168 159 156 166 178 183 186 190 187 167 151 158 171 166 152 145 145 145 145 143 140 137 133 128 124 122 120 118 117 116 117 121 122 122 123 125 131 137 132 122 122 125 125 126 126 124 120 108 95 95 99 95 89 83 74 62 53 47 46 48
311 313 323 326 333 344 331 285 277 268 239 236 247 217 196 219 208 182 179 186 180 173 169 167 167 163 155 155 163 176 184 183 176 166 155 156 167 169 159 155 159 158 150 144 143 143 139 135 131 127 124 123 122 119 116 117 120 122 121 121 121 123 126 125 121 122 124 121 118 120 122 120 109 99 99 100 96 88 79 67 56 49 45 45 51
308 314 326 339 352 341 300 283 280 279 286 302 272 215 218 230 203 176 177 183 176 170 166 166 164 156 151 154 164 176 182 176 164 158 159 169 174 163 153 159 165 160 152 146 145 144 141 138 136 131 127 126 126 123 122 122 124 127 127 126 124 122 122 124 125 125 124 119 116 117 113 109 109 109 107 102 94 83 71 60 52 47 44 46 54
328 332 349 3 355 301 278 277 283 290 302 312 293 243 200 192 185 182 184 184 180 174 168 163 158 153 153 158 164 170 168 160 154 153 157 169 173 161 155 159 161 157 152 146 144 147 146 142 137 134 131 131 130 129 130 131 132 134 133 131 129 126 124 126 128 129 128 123 121 119 111 106 108 111 109 101 89 75 65 59 55 50 46 47 56
333 342 12 20 309 269 265 266 272 280 286 284 276 245 199 187 188 187 184 179 177 173 168 163 156 153 157 161 161 158 152 146 146 146 148 156 165 164 162 163 162 160 156 152 151 153 151 147 143 139 137 135 136 137 137 136 136 138 139 138 135 130 129 134 136 134 131 127 124 121 116 111 108 105 100 92 80 70 65 62 59 57 52 49 55
328 356 32 2 282 269 268 271 277 281 278 267 258 238 217 209 203 194 186 181 176 169 163 160 156 154 156 157 155 154 151 147 146 144 141 144 153 161 164 164 164 164 162 160 158 156 155 153 150 147 147 144 140 140 141 139 139 141 142 141 133 129 132 135 136 135 132 127 122 117 114 111 105 98 93 86 79 72 69 67 65 63 57 53 56
328 15 39 306 280 280 286 294 304 305 293 280 271 260 245 233 218 201 188 183 177 166 159 158 156 153 152 151 150 150 149 149 148 145 140 138 143 155 161 162 162 164 165 166 164 162 162 161 154 151 153 150 143 140 138 138 140 143 144 140 133 131 131 129 131 133 129 122 117 112 108 105 100 95 90 87 82 76 72 74 77 72 62 58 62
333 27 17 282 277 286 298 304 314 316 305 291 281 269 259 251 232 210 195 186 177 166 161 159 156 154 153 153 151 150 148 148 148 146 143 139 134 138 149 158 160 162 165 168 168 166 165 164 157 150 145 140 135 133 128 127 129 129 130 133 135 135 132 131 134 133 123 115 113 110 104 100 96 94 95 94 88 80 75 84 96 88 65 54 62